Location: *
(44.9308°N, 123.0197°W)
Time: 04:03:11
(UTC+00:00)

Cosmos 1300 Rocket - Pass Details

Date: 09 April 2020
Orbit: 603 x 626 km, 82.5° (Epoch: 25 May)

Event Time Altitude Azimuth Distance (km) Brightness Sun altitude
Rises 11:59:51 0° 347° (NNW) 2,866 7.2 -16.8°
Reaches altitude 10° 12:02:06 10° 343° (NNW) 1,959 6.3 -16.5°
Maximum altitude 12:06:19 55° 266° (W) 729 3.6 -15.8°
Enters shadow 12:10:19 11° 189° (S) 1,865 5.7 -15.2°
